Flag for U.S.A. Weather past 2 weeks in Newark, New Jersey, U.S.A.

Now
20 °F

Scattered clouds.


Feels Like: 7 °F
Forecast: 18 / 31 °F
Wind: 14 mph from Northwest

Location: Newark International Airport

Current Time: Jan 28, 2015 at 10:07:36 AM

Latest Report: Jan 28, 2015 at 8:51 AM


Visibility: 10 mi

Pressure: 30.04 "Hg

Humidity: 48%

Dew point: 3 °F

Location of NewarkLocation

Historic Weather in Newark — Graph

°F

Newark temperature yesterday

Maximum temperature yesterday: 29 °F (at 1:51 PM)
Minimum temperature yesterday: 19 °F (at 11:51 PM)
Average temperature yesterday: 24 °F

Past Weeks' High & Low Weather Summary

 TemperatureHumidityPressure
High42 °F (Jan 16, 1:51 PM)100% (Jan 18, 12:59 PM)30.64 "Hg (Jan 18, 12:59 PM)
Low14 °F (Jan 13, 11:51 PM)28% (Jan 17, 2:51 PM)29.29 "Hg (Jan 24, 2:51 PM)
Average30 °F63%30.02 "Hg
* Reported Jan 13 8:51 AM — Jan 28 8:51 AM, Newark, Weather by CustomWeather, © 2014

Note: Actual official high and low records may vary slightly from our data, if they occured in-between our weather recording intervals... More about our weather records

Advertising

Newark weather history for previous 24 hours

 ConditionsComfort  
Time TempWeatherWind HumidityBarometerVisibility
8:51 AM
Jan 28
20 °FScattered clouds.14 mph48%30.04 "Hg10 mi
7:51 AM19 °FScattered clouds.16 mph43%30.02 "Hg10 mi
6:51 AM17 °FPassing clouds.12 mph42%30.00 "Hg10 mi
5:51 AM16 °FPassing clouds.15 mph45%29.97 "Hg10 mi
4:51 AM16 °FPassing clouds.13 mph45%29.94 "Hg10 mi
3:51 AM15 °FPassing clouds.13 mph46%29.93 "Hg10 mi
2:51 AM16 °FPassing clouds.14 mph49%29.92 "Hg10 mi
1:51 AM16 °FPassing clouds.17 mph53%29.89 "Hg10 mi
12:51 AM18 °FPassing clouds.17 mph54%29.87 "Hg10 mi
11:51 PM
Jan 27
19 °FOvercast.18 mph54%29.87 "Hg10 mi
10:51 PM20 °FPassing clouds.18 mph52%29.84 "Hg10 mi
9:51 PM21 °FPassing clouds.20 mph52%29.82 "Hg10 mi
8:51 PM23 °FPassing clouds.16 mph57%29.80 "Hg10 mi
7:51 PM25 °FPassing clouds.20 mph58%29.77 "Hg10 mi
6:51 PM26 °FPassing clouds.17 mph60%29.74 "Hg10 mi
5:51 PM27 °FPassing clouds.10 mph63%29.71 "Hg10 mi
4:51 PM28 °FCloudy.16 mph64%29.68 "Hg10 mi
3:51 PM28 °FCloudy.14 mph66%29.66 "Hg10 mi
2:51 PM29 °FMostly cloudy.16 mph61%29.66 "Hg10 mi
1:51 PM29 °FCloudy.17 mph64%29.66 "Hg10 mi
12:51 PM28 °FCloudy.14 mph66%29.67 "Hg10 mi
11:51 AM27 °FLight snow. Mostly cloudy.12 mph75%29.69 "Hg5 mi
10:51 AM26 °FLight snow. Mostly cloudy.15 mph74%29.70 "Hg6 mi
Weather by CustomWeather, © 2014

See weather overviewHow to use our weather pages